KG5VSR Weather Reports


Display with metric or nautical units.
time (UTC)temp
F
wind
direction
speed
MPH
gust
MPH
rain 1hr
in
rain 24hr
in
rain mn
in
humidity
%
barometer
mb
20260505025009 75 195 2.0 2.0 0.00 0.00 0.00 75 1007.1
20260505022010 75 155 2.0 3.0 0.00 0.00 0.00 74 1006.8
20260505015006 76 168 2.0 3.0 0.00 0.00 0.00 73 1006.9
20260505012000 76 169 6.0 9.0 0.00 0.00 0.00 72 1006.8
20260505004957 77 163 4.0 7.0 0.00 0.00 0.00 70 1006.9
20260505001956 78 183 4.0 6.0 0.00 0.00 0.00 69 1006.9
20260504234956 78 186 6.0 9.0 0.00 0.00 0.00 67 1007.1
20260504231954 79 202 2.0 2.0 0.00 0.00 0.00 66 1007.3
20260504224953 80 163 2.0 3.0 0.00 0.00 0.00 64 1007.5
20260504221952 80 201 5.0 6.0 0.00 0.00 0.00 64 1007.7
20260504214950 81 188 5.0 6.0 0.00 0.00 0.00 63 1008.1
20260504211948 82 161 6.0 9.0 0.00 0.00 0.00 61 1008.7
20260504204942 80 176 4.0 6.0 0.00 0.00 0.00 63 1009.1
20260504201937 80 130 7.0 9.0 0.00 0.00 0.00 61 1009.8
20260504194936 81 152 10.0 14.0 0.00 0.00 0.00 59 1010.5
20260504191931 80 148 8.0 9.0 0.00 0.00 0.00 58 1010.9
20260504184927 79 167 3.0 5.0 0.00 0.00 0.00 58 1011.0
20260504181926 80 188 7.0 9.0 0.00 0.00 0.00 57 1011.4
20260504174924 79 186 7.0 8.0 0.00 0.00 0.00 55 1012.0
20260504171922 77 150 3.0 3.0 0.00 0.00 0.00 54 1012.2
20260504081840 63 141 3.0 5.0 0.00 0.00 0.00 72 1014.4
20260504044823 67 51 3.0 6.0 0.00 0.00 0.00 63 1016.6
20260504041822 68 179 1.0 1.0 0.00 0.00 0.00 62 1016.5
20260504034820 69 192 2.0 2.0 0.00 0.00 0.00 60 1016.7
20260504031821 70 165 1.0 2.0 0.00 0.00 0.00 57 1016.4